| time (UTC) | temp F | wind direction | speed MPH | gust MPH | rain 1hr in | rain 24hr in | rain mn in | humidity % | barometer mb |
| 20260504172554 | 76 | 158 | 3.0 | 4.0 | 0.00 | 0.00 | 0.00 | 38 | 1013.5 |
| 20260504172050 | 76 | 307 | 0.0 | 3.0 | 0.00 | 0.00 | 0.00 | 35 | 1013.3 |
| 20260504171547 | 77 | 166 | 0.0 | 7.0 | 0.00 | 0.00 | 0.00 | 38 | 1013.4 |
| 20260504171044 | 76 | 120 | 2.0 | 6.0 | 0.00 | 0.00 | 0.00 | 38 | 1013.5 |
| 20260504170539 | 76 | 5 | 0.0 | 7.0 | 0.00 | 0.00 | 0.00 | 34 | 1013.7 |
| 20260504150924 | 72 | 231 | 2.0 | 3.0 | 0.00 | 0.00 | 0.00 | 40 | 1015.0 |
| 20260504150420 | 72 | 154 | 3.0 | 3.0 | 0.00 | 0.00 | 0.00 | 44 | 1014.9 |
| 20260504140847 | 68 | 172 | 0.0 | 6.0 | 0.00 | 0.00 | 0.00 | 46 | 1015.2 |
| 20260504140343 | 68 | 7 | 0.0 | 3.0 | 0.00 | 0.00 | 0.00 | 43 | 1015.4 |
| 20260504130812 | 62 | 180 | 1.0 | 2.0 | 0.00 | 0.00 | 0.00 | 55 | 1015.6 |
| 20260504130308 | 62 | 263 | 0.0 | 5.0 | 0.00 | 0.00 | 0.00 | 53 | 1015.9 |
| 20260504120231 | 57 | 5 | 1.0 | 3.0 | 0.00 | 0.00 | 0.00 | 63 | 1016.0 |
| 20260504110659 | 49 | 66 | 0.0 | 1.0 | 0.00 | 0.00 | 0.00 | 85 | 1016.4 |
| 20260504110155 | 49 | 120 | 0.0 | 2.0 | 0.00 | 0.00 | 0.00 | 83 | 1016.4 |
| 20260504100119 | 50 | 105 | 1.0 | 2.0 | 0.00 | 0.00 | 0.00 | 78 | 1016.2 |
| 20260504081512 | 50 | 99 | 0.0 | 1.0 | 0.00 | 0.00 | 0.00 | 76 | 1016.5 |
| 20260504081008 | 50 | 111 | 0.0 | 1.0 | 0.00 | 0.00 | 0.00 | 75 | 1016.5 |
| 20260504080504 | 50 | 106 | 0.0 | 1.0 | 0.00 | 0.00 | 0.00 | 74 | 1016.4 |
| 20260504050317 | 46 | 126 | 0.0 | 2.0 | 0.00 | 0.00 | 0.00 | 85 | 1016.6 |
| 20260504045814 | 46 | 123 | 1.0 | 2.0 | 0.00 | 0.00 | 0.00 | 85 | 1016.5 |
| 20260504045309 | 46 | 120 | 0.0 | 2.0 | 0.00 | 0.00 | 0.00 | 84 | 1016.6 |
| 20260504044806 | 46 | 126 | 0.0 | 2.0 | 0.00 | 0.00 | 0.00 | 85 | 1016.8 |
| 20260504044304 | 45 | 120 | 1.0 | 1.0 | 0.00 | 0.00 | 0.00 | 85 | 1016.6 |
| 20260504043801 | 45 | 120 | 1.0 | 2.0 | 0.00 | 0.00 | 0.00 | 87 | 1016.7 |
| 20260504043258 | 45 | 117 | 1.0 | 2.0 | 0.00 | 0.00 | 0.00 | 88 | 1016.7 |
| 20260504042755 | 44 | 107 | 2.0 | 2.0 | 0.00 | 0.00 | 0.00 | 89 | 1016.6 |
| 20260504042251 | 44 | 98 | 0.0 | 1.0 | 0.00 | 0.00 | 0.00 | 91 | 1016.4 |
| 20260504041748 | 44 | 117 | 0.0 | 2.0 | 0.00 | 0.00 | 0.00 | 92 | 1016.7 |
| 20260504041244 | 44 | 120 | 1.0 | 2.0 | 0.00 | 0.00 | 0.00 | 91 | 1016.6 |
| 20260504040740 | 44 | 96 | 0.0 | 1.0 | 0.00 | 0.00 | 0.00 | 91 | 1016.6 |
| 20260504040238 | 43 | 128 | 2.0 | 2.0 | 0.00 | 0.00 | 0.00 | 92 | 1016.6 |
| 20260504035733 | 43 | 126 | 1.0 | 2.0 | 0.00 | 0.00 | 0.00 | 93 | 1016.6 |
| 20260504035231 | 43 | 127 | 2.0 | 2.0 | 0.00 | 0.00 | 0.00 | 92 | 1016.5 |
| 20260504034728 | 43 | 107 | 2.0 | 2.0 | 0.00 | 0.00 | 0.00 | 92 | 1016.5 |
| 20260504034225 | 43 | 120 | 1.0 | 2.0 | 0.00 | 0.00 | 0.00 | 91 | 1016.6 |
| 20260504033723 | 42 | 114 | 1.0 | 2.0 | 0.00 | 0.00 | 0.00 | 91 | 1016.5 |
| 20260504033220 | 42 | 98 | 1.0 | 1.0 | 0.00 | 0.00 | 0.00 | 90 | 1016.6 |
| 20260504032717 | 42 | 96 | 1.0 | 2.0 | 0.00 | 0.00 | 0.00 | 90 | 1016.8 |
| 20260504032214 | 43 | 117 | 1.0 | 2.0 | 0.00 | 0.00 | 0.00 | 90 | 1016.6 |
| 20260504031711 | 43 | 131 | 1.0 | 2.0 | 0.00 | 0.00 | 0.00 | 88 | 1016.4 |
| 20260504031208 | 43 | 135 | 2.0 | 2.0 | 0.00 | 0.00 | 0.00 | 87 | 1016.7 |
| 20260504030704 | 43 | 117 | 1.0 | 2.0 | 0.00 | 0.00 | 0.00 | 87 | 1016.4 |
| 20260504030202 | 43 | 111 | 1.0 | 2.0 | 0.00 | 0.00 | 0.00 | 87 | 1016.4 |
| 20260504025658 | 43 | 106 | 0.0 | 2.0 | 0.00 | 0.00 | 0.00 | 87 | 1016.4 |
| 20260504025155 | 44 | 135 | 2.0 | 2.0 | 0.00 | 0.00 | 0.00 | 88 | 1016.3 |
| 20260504024652 | 43 | 123 | 1.0 | 2.0 | 0.00 | 0.00 | 0.00 | 88 | 1016.2 |
| 20260504024148 | 44 | 142 | 2.0 | 2.0 | 0.00 | 0.00 | 0.00 | 87 | 1016.5 |
| 20260504023645 | 44 | 114 | 1.0 | 2.0 | 0.00 | 0.00 | 0.00 | 88 | 1016.5 |
| 20260504023141 | 44 | 131 | 1.0 | 2.0 | 0.00 | 0.00 | 0.00 | 88 | 1016.4 |
| 20260504022637 | 44 | 131 | 1.0 | 2.0 | 0.00 | 0.00 | 0.00 | 85 | 1016.4 |
| 20260504022133 | 44 | 117 | 1.0 | 2.0 | 0.00 | 0.00 | 0.00 | 85 | 1016.4 |
| 20260504021632 | 44 | 131 | 1.0 | 2.0 | 0.00 | 0.00 | 0.00 | 85 | 1016.2 |
| 20260504021128 | 45 | 120 | 0.0 | 2.0 | 0.00 | 0.00 | 0.00 | 83 | 1016.4 |
| 20260504020625 | 45 | 111 | 0.0 | 2.0 | 0.00 | 0.00 | 0.00 | 85 | 1016.5 |
| 20260504020121 | 46 | 135 | 2.0 | 2.0 | 0.00 | 0.00 | 0.00 | 83 | 1016.3 |
| 20260504015618 | 46 | 120 | 1.0 | 2.0 | 0.00 | 0.00 | 0.00 | 81 | 1016.2 |
| 20260504015114 | 46 | 135 | 2.0 | 2.0 | 0.00 | 0.00 | 0.00 | 79 | 1016.0 |
| 20260504014610 | 47 | 114 | 1.0 | 2.0 | 0.00 | 0.00 | 0.00 | 78 | 1016.1 |
| 20260504014107 | 47 | 90 | 1.0 | 1.0 | 0.00 | 0.00 | 0.00 | 75 | 1016.2 |
| 20260504013605 | 47 | 114 | 1.0 | 2.0 | 0.00 | 0.00 | 0.00 | 76 | 1016.1 |
| 20260504013102 | 47 | 127 | 0.0 | 2.0 | 0.00 | 0.00 | 0.00 | 77 | 1015.9 |
| 20260504012559 | 48 | 157 | 1.0 | 1.0 | 0.00 | 0.00 | 0.00 | 74 | 1016.3 |
| 20260504012057 | 48 | 139 | 2.0 | 2.0 | 0.00 | 0.00 | 0.00 | 74 | 1016.0 |
| 20260504011553 | 48 | 140 | 1.0 | 2.0 | 0.00 | 0.00 | 0.00 | 73 | 1016.1 |
| 20260504011049 | 48 | 114 | 1.0 | 1.0 | 0.00 | 0.00 | 0.00 | 73 | 1015.9 |
| 20260504010545 | 48 | 117 | 0.0 | 2.0 | 0.00 | 0.00 | 0.00 | 73 | 1015.7 |
| 20260504010041 | 49 | 154 | 1.0 | 2.0 | 0.00 | 0.00 | 0.00 | 75 | 1015.8 |
| 20260504005538 | 50 | 114 | 1.0 | 2.0 | 0.00 | 0.00 | 0.00 | 73 | 1015.9 |
| 20260504005036 | 50 | 126 | 0.0 | 1.0 | 0.00 | 0.00 | 0.00 | 68 | 1015.8 |
| 20260504004533 | 51 | 114 | 0.0 | 1.0 | 0.00 | 0.00 | 0.00 | 67 | 1015.8 |
| 20260504004030 | 51 | 120 | 0.0 | 1.0 | 0.00 | 0.00 | 0.00 | 64 | 1015.7 |
| 20260504003526 | 52 | 106 | 0.0 | 1.0 | 0.00 | 0.00 | 0.00 | 68 | 1015.6 |
| 20260504003023 | 52 | 106 | 0.0 | 1.0 | 0.00 | 0.00 | 0.00 | 64 | 1015.6 |
| 20260504002520 | 53 | 106 | 0.0 | 1.0 | 0.00 | 0.00 | 0.00 | 64 | 1015.6 |
| 20260504002018 | 53 | 106 | 1.0 | 1.0 | 0.00 | 0.00 | 0.00 | 64 | 1015.4 |
| 20260504001515 | 53 | 114 | 0.0 | 1.0 | 0.00 | 0.00 | 0.00 | 63 | 1015.5 |
| 20260504001011 | 53 | 123 | 0.0 | 2.0 | 0.00 | 0.00 | 0.00 | 62 | 1015.5 |
| 20260504000508 | 54 | 147 | 2.0 | 2.0 | 0.00 | 0.00 | 0.00 | 61 | 1015.5 |
| 20260504000006 | 55 | 151 | 2.0 | 2.0 | 0.00 | 0.00 | 0.00 | 63 | 1015.6 |
| 20260503235504 | 56 | 140 | 0.0 | 2.0 | 0.00 | 0.00 | 0.00 | 60 | 1015.3 |
| 20260503235000 | 56 | 131 | 0.0 | 2.0 | 0.00 | 0.00 | 0.00 | 55 | 1015.3 |
| 20260503234458 | 57 | 147 | 2.0 | 2.0 | 0.00 | 0.00 | 0.00 | 58 | 1015.3 |
| 20260503233956 | 58 | 106 | 0.0 | 0.0 | 0.00 | 0.00 | 0.00 | 51 | 1015.1 |
| 20260503233452 | 59 | 99 | 0.0 | 1.0 | 0.00 | 0.00 | 0.00 | 49 | 1015.3 |
| 20260503232948 | 59 | 99 | 0.0 | 0.0 | 0.00 | 0.00 | 0.00 | 48 | 1015.1 |
| 20260503232446 | 60 | 352 | 0.0 | 1.0 | 0.00 | 0.00 | 0.00 | 44 | 1015.1 |
| 20260503231943 | 60 | 0 | 0.0 | 0.0 | 0.00 | 0.00 | 0.00 | 45 | 1015.2 |
| 20260503231441 | 60 | 0 | 0.0 | 2.0 | 0.00 | 0.00 | 0.00 | 43 | 1015.2 |
| 20260503230937 | 61 | 264 | 0.0 | 2.0 | 0.00 | 0.00 | 0.00 | 43 | 1015.1 |
| 20260503230434 | 61 | 261 | 0.0 | 2.0 | 0.00 | 0.00 | 0.00 | 41 | 1015.1 |
| 20260503225931 | 61 | 126 | 1.0 | 1.0 | 0.00 | 0.00 | 0.00 | 41 | 1015.1 |
| 20260503225428 | 62 | 15 | 0.0 | 2.0 | 0.00 | 0.00 | 0.00 | 39 | 1015.3 |
| 20260503224924 | 62 | 90 | 1.0 | 4.0 | 0.00 | 0.00 | 0.00 | 42 | 1015.2 |
| 20260503224421 | 62 | 270 | 0.0 | 1.0 | 0.00 | 0.00 | 0.00 | 38 | 1015.2 |
| 20260503223919 | 62 | 106 | 0.0 | 3.0 | 0.00 | 0.00 | 0.00 | 38 | 1015.4 |
| 20260503223416 | 62 | 145 | 1.0 | 3.0 | 0.00 | 0.00 | 0.00 | 41 | 1015.0 |
| 20260503222916 | 62 | 145 | 1.0 | 3.0 | 0.00 | 0.00 | 0.00 | 39 | 1015.1 |
| 20260503222415 | 62 | 139 | 2.0 | 4.0 | 0.00 | 0.00 | 0.00 | 38 | 1015.2 |
| 20260503221913 | 62 | 150 | 3.0 | 4.0 | 0.00 | 0.00 | 0.00 | 40 | 1015.4 |
| 20260503221411 | 62 | 152 | 0.0 | 3.0 | 0.00 | 0.00 | 0.00 | 38 | 1015.3 |
| 20260503220908 | 63 | 135 | 2.0 | 3.0 | 0.00 | 0.00 | 0.00 | 38 | 1015.1 |
| 20260503220404 | 62 | 152 | 2.0 | 5.0 | 0.00 | 0.00 | 0.00 | 37 | 1015.4 |
| 20260503215901 | 62 | 148 | 3.0 | 10.0 | 0.00 | 0.00 | 0.00 | 39 | 1015.2 |
| 20260503215358 | 63 | 180 | 1.0 | 3.0 | 0.00 | 0.00 | 0.00 | 38 | 1015.5 |
| 20260503214856 | 63 | 129 | 3.0 | 4.0 | 0.00 | 0.00 | 0.00 | 41 | 1015.5 |
| 20260503214353 | 63 | 161 | 2.0 | 4.0 | 0.00 | 0.00 | 0.00 | 40 | 1015.5 |
| 20260503213850 | 63 | 132 | 2.0 | 6.0 | 0.00 | 0.00 | 0.00 | 37 | 1015.4 |
| 20260503213348 | 63 | 173 | 0.0 | 2.0 | 0.00 | 0.00 | 0.00 | 40 | 1015.4 |
| 20260503212844 | 62 | 267 | 3.0 | 4.0 | 0.00 | 0.00 | 0.00 | 36 | 1015.6 |
| 20260503212342 | 63 | 204 | 5.0 | 5.0 | 0.00 | 0.00 | 0.00 | 36 | 1015.4 |
| 20260503211839 | 63 | 195 | 7.0 | 7.0 | 0.00 | 0.00 | 0.00 | 39 | 1015.2 |
| 20260503211336 | 62 | 151 | 3.0 | 9.0 | 0.00 | 0.00 | 0.00 | 38 | 1015.5 |
| 20260503210831 | 62 | 160 | 3.0 | 7.0 | 0.00 | 0.00 | 0.00 | 39 | 1015.7 |
| 20260503210329 | 63 | 158 | 4.0 | 5.0 | 0.00 | 0.00 | 0.00 | 38 | 1015.4 |
| 20260503205824 | 63 | 141 | 2.0 | 5.0 | 0.00 | 0.00 | 0.00 | 39 | 1015.5 |
| 20260503205320 | 63 | 260 | 5.0 | 6.0 | 0.00 | 0.00 | 0.00 | 39 | 1015.5 |
| 20260503204817 | 64 | 294 | 0.0 | 5.0 | 0.00 | 0.00 | 0.00 | 40 | 1015.6 |
| 20260503204315 | 63 | 153 | 5.0 | 5.0 | 0.00 | 0.00 | 0.00 | 39 | 1015.5 |
| 20260503203812 | 63 | 173 | 3.0 | 7.0 | 0.00 | 0.00 | 0.00 | 37 | 1015.4 |
| 20260503203309 | 63 | 16 | 0.0 | 6.0 | 0.00 | 0.00 | 0.00 | 36 | 1015.6 |
| 20260503202806 | 62 | 132 | 2.0 | 6.0 | 0.00 | 0.00 | 0.00 | 38 | 1015.6 |
| 20260503202304 | 62 | 150 | 4.0 | 6.0 | 0.00 | 0.00 | 0.00 | 37 | 1015.7 |
| 20260503201801 | 63 | 164 | 3.0 | 4.0 | 0.00 | 0.00 | 0.00 | 40 | 1015.7 |
| 20260503201259 | 63 | 277 | 1.0 | 4.0 | 0.00 | 0.00 | 0.00 | 36 | 1015.8 |
| 20260503200756 | 62 | 26 | 2.0 | 9.0 | 0.00 | 0.00 | 0.00 | 37 | 1016.0 |
| 20260503200251 | 62 | 153 | 5.0 | 5.0 | 0.00 | 0.00 | 0.00 | 38 | 1016.1 |
| 20260503195749 | 62 | 236 | 2.0 | 5.0 | 0.00 | 0.00 | 0.00 | 36 | 1016.2 |
| 20260503195246 | 63 | 165 | 5.0 | 5.0 | 0.00 | 0.00 | 0.00 | 38 | 1016.3 |
| 20260503194743 | 63 | 10 | 2.0 | 6.0 | 0.00 | 0.00 | 0.00 | 36 | 1016.2 |
| 20260503194239 | 61 | 150 | 4.0 | 8.0 | 0.00 | 0.00 | 0.00 | 38 | 1016.5 |
| 20260503193735 | 61 | 155 | 3.0 | 8.0 | 0.00 | 0.00 | 0.00 | 39 | 1016.6 |
| 20260503193231 | 61 | 156 | 7.0 | 7.0 | 0.00 | 0.00 | 0.00 | 38 | 1016.7 |
| 20260503192727 | 62 | 134 | 4.0 | 12.0 | 0.00 | 0.00 | 0.00 | 38 | 1016.7 |
| 20260503192222 | 62 | 135 | 2.0 | 5.0 | 0.00 | 0.00 | 0.00 | 38 | 1016.7 |
| 20260503191720 | 62 | 147 | 0.0 | 7.0 | 0.00 | 0.00 | 0.00 | 37 | 1016.8 |
| 20260503191217 | 62 | 0 | 3.0 | 8.0 | 0.00 | 0.00 | 0.00 | 37 | 1016.5 |
| 20260503190713 | 62 | 0 | 2.0 | 5.0 | 0.00 | 0.00 | 0.00 | 38 | 1016.7 |
| 20260503190210 | 61 | 80 | 2.0 | 4.0 | 0.00 | 0.00 | 0.00 | 38 | 1016.8 |
| 20260503185708 | 61 | 265 | 2.0 | 8.0 | 0.00 | 0.00 | 0.00 | 39 | 1016.9 |
| 20260503185202 | 61 | 174 | 4.0 | 5.0 | 0.00 | 0.00 | 0.00 | 40 | 1016.9 |
| 20260503184657 | 62 | 158 | 4.0 | 7.0 | 0.00 | 0.00 | 0.00 | 41 | 1016.8 |
| 20260503184154 | 60 | 158 | 5.0 | 5.0 | 0.00 | 0.00 | 0.00 | 41 | 1017.1 |
| 20260503183650 | 60 | 146 | 4.0 | 11.0 | 0.00 | 0.00 | 0.00 | 41 | 1017.2 |
| 20260503183148 | 61 | 147 | 2.0 | 7.0 | 0.00 | 0.00 | 0.00 | 38 | 1017.0 |
| 20260503182646 | 60 | 146 | 5.0 | 10.0 | 0.00 | 0.00 | 0.00 | 41 | 1017.3 |
| 20260503182144 | 60 | 177 | 3.0 | 9.0 | 0.00 | 0.00 | 0.00 | 41 | 1017.0 |
| 20260503181640 | 60 | 159 | 6.0 | 6.0 | 0.00 | 0.00 | 0.00 | 40 | 1017.1 |
| 20260503181137 | 60 | 128 | 2.0 | 8.0 | 0.00 | 0.00 | 0.00 | 42 | 1017.2 |
| 20260503180634 | 59 | 120 | 0.0 | 8.0 | 0.00 | 0.00 | 0.00 | 40 | 1017.1 |
| 20260503180132 | 59 | 71 | 0.0 | 10.0 | 0.00 | 0.00 | 0.00 | 40 | 1017.2 |
| 20260503175629 | 59 | 145 | 0.0 | 8.0 | 0.00 | 0.00 | 0.00 | 40 | 1017.4 |
| 20260503175126 | 59 | 135 | 2.0 | 8.0 | 0.00 | 0.00 | 0.00 | 44 | 1017.3 |
| 20260503174623 | 58 | 151 | 5.0 | 9.0 | 0.00 | 0.00 | 0.00 | 42 | 1017.3 |
| 20260503174120 | 60 | 216 | 3.0 | 7.0 | 0.00 | 0.00 | 0.00 | 39 | 1017.3 |
| 20260503173615 | 59 | 82 | 1.0 | 7.0 | 0.00 | 0.00 | 0.00 | 41 | 1017.3 |
| 20260503173111 | 60 | 20 | 1.0 | 5.0 | 0.00 | 0.00 | 0.00 | 42 | 1017.7 |